x

Halibut Bank (46146) Wave Buoy

7:00pm - Fri 3rd Jul 2015 All times are PDT. -7 hours from GMT.

  • Sig Wave height 1.3ft
  • Peak Period 3s
  • Wind
    18mph, 22mph gusts
  • Sea Temp 58°f
  • Air Temp 67°f
  • Sea Pressure 1009.8mb
  • Halibut Bank
  • Halibut Bank

More Historic Weather Station data

Upgrade to MSW Pro to gain access to the past 30 days of data for over 8000 Wavebouys and Weather Stations around the globe.

Join Pro

Comparision Forecast

View Surf forecast
   
Fri 07/03 7:00pm 1.3ft 3s 18 22 mph 1009.8mb 58f 67f
6:00pm 1.6ft 3s 18 20 mph 1010.1mb 58f 67f
5:00pm 1.3ft 3s 16 18 mph 1010.9mb 58f 65f
4:00pm 1.6ft 3s 18 20 mph 1011.7mb 57f 66f
3:00pm 1.3ft 3s 18
mph
1012.4mb 57f 65f
2:00pm 1.3ft 3s 13 16 mph 1013.4mb 57f 64f
1:00pm 1.6ft 3s 16 18 mph 1014mb 56f 64f
12:00pm 1.6ft 4s 16 18 mph 1014.4mb 56f 62f
11:00am 2.5ft 4s 16 18 mph 1014.7mb 57f 62f
10:00am 2.5ft 4s 16 18 mph 1014.8mb 57f 62f
9:00am 2ft 4s 18 22 mph 1014.7mb 57f 62f
8:00am 1.6ft 4s 16 18 mph 1014.7mb 57f 61f
7:00am 2ft 4s 13 16 mph 1014.5mb 57f 61f
6:00am 2.5ft 4s 18 20 mph 1014.1mb 57f 61f
5:00am 2.5ft 4s 18 20 mph 1013.9mb 57f 62f
4:00am 2.5ft 4s 18 22 mph 1013.6mb 57f 62f
3:00am 2.5ft 4s 18 20 mph 1013.4mb 57f 63f
2:00am 2.5ft 4s 20 22 mph 1013.4mb 58f 63f
1:00am 2.5ft 4s 20 25 mph 1013.3mb 60f 64f
12:00am 2.5ft 4s 22 25 mph 1013mb 61f 65f
Thu 07/02 11:00pm 2.5ft 4s 20 22 mph 1013mb 60f 65f
10:00pm 2ft 4s 20 22 mph 1012.9mb 59f 66f
9:00pm 2ft 3s 22 25 mph 1012.4mb 60f 67f
8:00pm 1.6ft 3s 20 22 mph 1012.6mb 60f 67f
7:00pm 1.6ft 3s 20 22 mph 1012.9mb 61f 68f
6:00pm 2ft 3s 20 22 mph 1013.3mb 61f 70f
5:00pm 2ft 3s 20 22 mph 1013.8mb 62f 69f
4:00pm 2.5ft 4s 20 25 mph 1014.4mb 61f 68f
3:00pm 2ft 4s 20 22 mph 1015mb 62f 67f
2:00pm 2.5ft 4s 18 20 mph 1015.8mb 62f 66f
1:00pm 2.5ft 4s 18 22 mph 1016.4mb 62f 64f
12:00pm 2.5ft 4s 18 20 mph 1016.8mb 61f 63f
11:00am 2.5ft 4s 18 20 mph 1017.2mb 60f 63f
10:00am 3ft 4s 18 22 mph 1017.1mb 59f 62f
9:00am 3ft 4s 20 22 mph 1017.2mb 58f 62f
8:00am 3ft 4s 20 25 mph 1016.9mb 60f 62f
7:00am 2.5ft 4s 18 20 mph 1016.6mb 60f 62f
6:00am 2.5ft 4s 18 22 mph 1016.1mb 61f 63f
4:00am 3ft 4s 20 22 mph 1015.3mb 62f 64f
3:00am 3ft 4s 18 22 mph 1014.9mb 62f 65f
2:00am 2.5ft 4s 25 27 mph 1014.4mb 62f 66f
1:00am 2ft 4s 20 25 mph 1014.2mb 63f 66f
12:00am 1.3ft 3s 20 22 mph 1014.2mb 63f 67f
Wed 07/01 10:00pm 1.3ft 3s 20 22 mph 1013.7mb 64f 72f
9:00pm 1.3ft 3s 18 20 mph 1013.6mb 64f 72f
8:00pm 1.3ft 3s 18
mph
1013.7mb 64f 71f
7:00pm 1.3ft 3s 16 20 mph 1013.9mb 64f 70f
6:00pm 1.3ft 3s 13 16 mph 1014.4mb 64f 68f
5:00pm 1.3ft 3s 16
mph
1015mb 64f 68f
4:00pm 1.6ft 3s 16
mph
1015.7mb 64f 67f
3:00pm 1.6ft 4s 13 16 mph 1016.5mb 63f 66f
2:00pm 2ft 4s 16 18 mph 1017.1mb 63f 65f
1:00pm 2.5ft 4s 16 18 mph 1017.8mb 63f 65f
12:00pm 2.5ft 4s 18 20 mph 1018.2mb 63f 64f
11:00am 2.5ft 4s 18 22 mph 1018.6mb 63f 63f
10:00am 3ft 4s 20 22 mph 1018.8mb 63f 63f
9:00am 3ft 4s 20 25 mph 1019mb 63f 62f
8:00am 3ft 4s 20 22 mph 1019mb 63f 62f
7:00am 3.5ft 5s 18 22 mph 1018.9mb 63f 63f
6:00am 3.5ft 5s 22 25 mph 1018.4mb 63f 63f
5:00am 3.5ft 4s 22 27 mph 1017.8mb 63f 63f
4:00am 3.5ft 4s 22 27 mph 1017.6mb 64f 64f
3:00am 3.5ft 4s 20 27 mph 1017.4mb 64f 65f
2:00am 3ft 4s 22 27 mph 1017.1mb 65f 65f
1:00am 2.5ft 4s 18 22 mph 1017.3mb 66f 67f
12:00am 2.5ft 4s 20 25 mph 1017.2mb 66f 67f
Tue 06/30 10:00pm 2ft 3s 20 22 mph 1017.2mb 68f 69f
9:00pm 1.6ft 3s 18 20 mph 1016.4mb 69f 70f
8:00pm 1ft 2s 18 22 mph 1016.2mb 69f 73f
7:00pm 1ft 3s 13 16 mph 1016.2mb 71f 73f
6:00pm 0.7ft 2s 11 13 mph 1016.3mb 72f 73f
5:00pm 0.7ft 4s 7 9 mph 1016.8mb 72f 72f
3:00pm 0.7ft 3s 7
mph
1018.1mb 73f 71f
2:00pm 0.7ft 4s 2 4 mph 1018.7mb 72f 70f
1:00pm 0.7ft 3s 2
mph
1019.1mb 70f 69f
12:00pm 0.7ft 3s 2 4 mph 1019.5mb 69f 69f
11:00am 1ft 3s 4 7 mph 1019.6mb 69f 68f
10:00am 0.7ft 3s 4 7 mph 1019.5mb 68f 67f
9:00am 0.7ft 2s 4 7 mph 1019.3mb 68f 67f
8:00am 1ft 3s 11 13 mph 1018.8mb 68f 66f
7:00am 0.7ft 2s 11 13 mph 1018.4mb 68f 66f
6:00am 1ft 3s 2
mph
1017.8mb 69f 69f
5:00am 1ft 3s 9 11 mph 1017.4mb 69f 69f
4:00am 1ft 3s 11 13 mph 1016.8mb 69f 69f